Location: Goettingen
(51.5300°N, 9.9433°E)
Time: 11:25:31
(UTC+01:00)

ISS - Pass Details

Date: 27 March 2023
Orbit: 414 x 423 km, 51.6° (Epoch: 20 March)

Event Time Altitude Azimuth Distance (km) Brightness Sun altitude
Rises 20:29:13 0° 278° (W) 2,360 2.4 -7.7°
Reaches altitude 10° 20:31:19 10° 277° (W) 1,495 0.7 -8.0°
Maximum altitude 20:34:40 85° 191° (S) 423 -3.8 -8.5°
Enters shadow 20:37:38 13° 102° (ESE) 1,333 -1.9 -8.9°
